EW1707 Weather Reports


time (UTC)temp
F
wind
direction
speed
knots
gust
knots
rain 1hr
in
rain 24hr
in
rain mn
in
humidity
%
barometer
mb
20260505064526 0 360 0.0 0.0 0.00 0.24 0.00 1010.1
20260505063022 0 360 0.0 0.0 0.00 0.24 0.00 1010.0
20260505061519 0 360 0.0 4.3 0.00 0.24 0.00 1010.0
20260505060034 0 162 0.0 0.0 0.00 0.24 0.00 1010.1
20260505054512 0 162 0.0 0.0 0.00 0.24 0.24 1010.1
20260505053005 0 162 0.0 1.7 0.00 0.24 0.24 1010.1
20260505051504 0 135 2.6 6.1 0.00 0.24 0.24 1010.1
20260505050106 0 150 3.5 7.8 0.00 0.24 0.24 1010.5
20260505041544 0 360 0.9 4.3 0.00 0.24 0.24 1011.3
20260505040041 0 360 0.0 3.5 0.03 0.24 0.24 1011.7
20260505034535 0 360 0.0 0.0 0.06 0.24 0.24 1011.8
20260505033037 33 360 0.0 0.0 0.13 0.24 0.24 88 1012.1
20260505031533 33 360 0.0 0.0 0.20 0.24 0.24 88 1012.0
20260505030032 33 360 0.0 0.0 0.21 0.21 0.21 88 1011.9
20260505024531 34 360 0.0 4.3 0.18 0.18 0.18 90 1011.4
20260505023027 37 360 0.9 6.1 0.09 0.09 0.09 90 1011.5
20260505021529 38 360 0.0 5.2 0.03 0.03 0.03 90 1011.1
20260505020024 39 34 1.7 7.0 0.00 0.00 0.00 88 1010.5
20260505014521 41 49 2.6 7.0 0.00 0.00 0.00 81 1010.6
20260505013020 42 360 0.9 5.2 0.00 0.00 0.00 77 1010.1
20260505011524 43 72 0.0 3.5 0.00 0.00 0.00 77 1010.4
20260505010018 44 98 0.9 4.3 0.00 0.00 0.00 72 1010.1
20260505004522 44 101 0.0 6.1 0.00 0.00 0.00 71 1010.0
20260505003017 44 360 0.0 4.3 0.00 0.00 0.00 69 1010.0
20260505001517 45 111 0.9 6.1 0.00 0.00 0.00 72 1010.0
20260505000024 44 360 0.9 3.5 0.00 0.00 0.00 69 1010.0
20260504234516 44 28 0.0 3.5 0.00 0.00 0.00 70 1010.1
20260504233015 44 360 0.0 1.7 0.00 0.00 0.00 67 1009.9
20260504231515 44 360 0.9 4.3 0.00 0.00 0.00 67 1009.6
20260504230015 44 360 0.0 3.5 0.00 0.00 0.00 67 1009.3
20260504224519 45 334 0.0 2.6 0.00 0.00 0.00 69 1009.6
20260504223014 45 331 0.0 6.1 0.00 0.00 0.00 71 1010.0
20260504221512 46 360 0.9 6.1 0.00 0.00 0.00 62 1010.4
20260504220011 46 53 0.9 5.2 0.00 0.00 0.00 58 1009.6
20260504214518 47 32 0.0 7.0 0.00 0.00 0.00 53 1009.4
20260504213010 48 360 2.6 9.6 0.00 0.00 0.00 50 1009.0
20260504211521 52 32 3.5 9.6 0.00 0.00 0.00 41 1009.0
20260504210009 55 30 2.6 7.0 0.00 0.00 0.00 33 1008.6
20260504204515 57 360 1.7 7.0 0.00 0.00 0.00 31 1008.7
20260504203009 56 360 3.5 10.4 0.00 0.00 0.00 31 1009.0
20260504201505 54 360 0.9 10.4 0.00 0.00 0.00 37 1009.1
20260504200003 51 360 5.2 13.9 0.00 0.00 0.00 46 1009.4
20260504194503 50 360 7.8 18.2 0.00 0.00 0.00 47 1009.5
20260504193003 51 360 8.7 17.4 0.00 0.00 0.00 43 1009.5
20260504191502 53 360 8.7 17.4 0.00 0.00 0.00 43 1009.4
20260504190001 55 360 8.7 19.1 0.00 0.00 0.00 39 1009.5
20260504184631 56 360 5.2 17.4 0.00 0.00 0.00 37 1009.4
20260504183100 56 161 2.6 15.6 0.00 0.00 0.00 34 1009.5
20260504181559 55 314 3.5 10.4 0.00 0.00 0.00 35 1009.6
20260504180057 56 317 4.3 12.2 0.00 0.00 0.00 37 1009.7
20260504174554 54 294 4.3 10.4 0.00 0.00 0.00 38 1010.0
20260504173054 53 360 4.3 9.6 0.00 0.00 0.00 39 1010.2
20260504171553 53 319 3.5 9.6 0.00 0.00 0.00 41 1010.2
20260504110106 36 360 2.6 5.2 0.00 0.00 0.00 52 1010.9
20260504081538 40 360 2.6 6.1 0.00 0.00 0.00 47 1011.7